Location: Berg
(48.5667°N, 13.9833°E)
Time: 13:15:31
(UTC+00:00)

Cosmos 1908 - Pass Details

Date: 09 April 2020
Orbit: 511 x 531 km, 82.5° (Epoch: 23 May)

Event Time Altitude Azimuth Distance (km) Brightness Sun altitude
Rises 19:04:38 0° 201° (SSW) 2,640 6.7 -12.8°
Reaches altitude 10° 19:06:48 10° 207° (SSW) 1,761 5.9 -13.1°
Maximum altitude 19:10:33 50° 283° (WNW) 678 4.2 -13.7°
Drops below altitude 10° 19:14:23 10° 0° (N) 1,786 6.3 -14.2°
Sets 19:16:36 0° 6° (N) 2,684 7.2 -14.5°
